Terminal Aerodrome Forecast
Issued by NWS

Home | Current Version | Previous Version | Text Only | Print | Product List | Glossary On
Versions: 1 2 3 4 5 6 7 8 9 10 11 12 13 14 15 16 17 18 19 20 21 22 23
000
FTUS45 KREV 312325
TAFTVL
TAF
KTVL 312325Z 0100/0124 04008KT P6SM VCSH SCT080 BKN100 BKN150
     FM010200 VRB03KT P6SM FEW080 BKN150
     FM011600 19006KT P6SM SCT150
     FM012000 03007KT P6SM VCSH BKN100 BKN140=

USA.gov is the U.S. government's official web portal to all federal, state and local government web resources and services.